C/2024 L1 ( PanSTARRS )

Japanese version
Home page
Updated on October 18, 2024

---------------------------------------------------------------------

* Profile

Discovery Date June 1, 2024
Magnitude 21.6 mag
Discoverer Pan-STARRS 2 telescope (Haleakala)

* Pictures

* Orbital Elements

Epoch 2024 Oct. 17.0 TT = JDT 2460600.5
T 2025 Apr. 23.50838 TT                                 Bell
q   5.3477835            (2000.0)            P               Q
n   0.02540163     Peri.  171.83065     -0.68217401     -0.21206968
a  11.4611536      Node    45.13922     -0.71419254     +0.39840383
e   0.5333992      Incl.   99.17164     -0.15674067     -0.89235690
P  38.8
>From 82 observations 2024 Apr. 30-July 8, mean residual 0".4.

* Magnitudes Graph

        m1 = 9.5 + 5 log d + 10.0 log r

---------------------------------------------------------------------

The orbital elements are published on M.P.E.C. 2024-R266.
The magnitudes graphs are made with Comet for Windows.

---------------------------------------------------------------------

Copyright(C) Seiichi Yoshida (comet@aerith.net). All rights reserved.